Theta_e
319 320 319 318 318 318 317 317 317 317 316 315 314 314 313 313 313 313 313 313 312 312 310 309 310 308 305 303 302 302 300 298 299 300 301 301 300 299 298 297 296 295
319 319 319 318 317 317 317 317 317 317 316 316 315 314 314 313 313 313 313 313 312 312 311 310 311 310 307 304 302 302 301 299 298 298 299 299 300 299 298 296 296 295
318 319 319 318 317 316 316 316 316 317 316 316 315 315 314 313 313 313 313 313 312 312 312 312 311 310 309 306 303 302 303 302 299 298 298 298 298 297 297 296 296 295
318 318 318 318 318 317 316 315 315 315 315 315 315 315 314 313 313 313 313 312 313 312 312 311 310 310 310 309 306 303 303 305 303 299 299 299 298 298 297 297 297 296
317 317 317 317 317 317 316 315 314 314 314 314 314 314 314 313 313 313 313 312 312 312 312 311 309 309 309 309 308 306 303 305 306 304 301 301 300 299 298 298 298 298
315 316 316 316 316 316 315 315 314 314 313 313 313 313 313 312 312 312 313 312 311 311 311 310 309 309 309 308 307 307 305 304 306 306 304 303 302 300 299 299 299 299
314 314 314 315 315 315 314 314 314 314 314 313 313 312 312 312 312 312 312 312 312 311 310 310 310 309 310 310 308 307 306 305 306 307 305 303 302 301 300 301 300 299
313 313 313 313 314 314 314 313 313 313 313 313 313 312 312 312 312 311 311 311 311 310 310 310 310 310 309 309 309 307 305 304 306 307 304 302 302 301 301 301 300 300
313 312 312 312 313 313 313 313 313 312 312 312 312 312 312 312 313 312 311 310 310 310 310 310 310 309 309 308 308 307 306 304 306 307 305 303 302 301 301 300 300 300
312 312 312 311 312 312 312 312 312 312 312 311 311 311 311 311 312 312 311 310 309 309 309 309 309 309 308 308 308 307 306 305 306 307 305 304 303 302 301 300 300 300
311 311 311 311 311 311 311 312 312 311 310 310 310 310 310 310 310 310 311 310 309 309 309 309 309 308 308 308 308 307 307 307 308 307 305 304 304 303 302 301 301 300
310 311 311 311 311 310 310 311 311 311 310 310 310 309 309 309 309 309 309 309 309 309 308 308 308 308 308 307 307 306 306 307 309 307 305 303 303 303 303 302 301 300
309 310 310 310 310 310 310 310 310 310 309 309 309 309 309 308 308 308 308 309 309 309 308 308 307 307 307 306 306 305 305 306 307 306 304 302 302 302 302 302 302 301
309 309 309 309 310 309 309 309 309 309 308 307 307 307 308 308 308 307 308 308 308 308 307 307 306 306 306 305 305 305 306 306 307 305 302 301 301 302 302 302 301 301
309 309 309 308 309 308 308 308 308 308 307 306 306 306 306 307 307 307 306 305 306 306 306 306 305 305 305 305 305 305 305 306 306 304 302 301 300 300 301 301 301 300
309 309 308 308 308 308 308 307 307 307 306 305 305 304 304 304 305 305 305 304 304 304 304 304 304 305 305 305 306 306 305 305 304 302 301 301 300 299 300 300 300 300
309 309 308 307 307 306 306 306 305 305 304 304 303 303 303 303 303 303 303 304 304 303 303 303 303 304 304 305 305 306 306 304 302 301 300 300 300 300 299 299 299 299
308 308 308 307 306 305 305 305 304 303 302 302 302 302 302 302 302 302 302 302 302 302 302 302 302 303 303 304 304 305 305 304 302 300 300 300 300 300 299 299 298 298
307 307 307 306 305 305 304 303 302 301 301 301 301 301 301 301 301 301 301 300 300 300 300 300 301 301 302 303 303 303 303 303 302 301 300 300 300 299 299 299 298 298
306 306 306 305 305 304 303 301 301 300 300 300 300 300 300 300 299 299 299 299 299 299 299 299 300 301 301 301 302 302 302 302 302 302 300 299 299 299 299 299 298 297
305 305 304 304 303 303 302 300 300 299 298 299 299 299 299 299 299 298 298 298 298 299 298 298 299 299 300 300 301 301 301 301 301 301 299 299 299 298 299 298 298 298
303 303 303 303 302 301 300 299 299 298 298 298 298 298 298 298 298 298 298 297 297 298 298 297 298 299 299 300 300 301 300 299 299 298 298 298 297 298 298 298 297 297
302 302 302 302 301 300 299 299 298 298 298 298 297 297 297 297 297 297 297 297 297 297 297 297 297 298 299 299 299 299 298 297 297 297 297 296 296 296 296 296 296 296
301 301 301 301 300 299 298 298 298 298 298 298 297 297 297 297 297 297 297 297 297 297 297 297 297 297 298 298 298 298 297 297 296 296 295 295 295 295 295 295 296 295
301 300 300 300 299 299 299 298 298 298 298 298 297 297 297 296 296 296 296 296 296 297 297 297 297 297 297 297 297 297 297 297 296 295 294 294 294 294 294 294 295 294
300 300 299 299 299 298 298 298 298 298 298 297 297 297 296 296 296 296 295 295 295 296 297 297 297 296 297 297 297 297 297 296 296 295 294 293 293 293 292 292 292 293
Wind_Speed
45 42 40 40 41 42 43 44 44 44 45 45 45 45 46 47 47 47 47 47 45 44 42 41 40 40 39 37 37 37 37 37 38 38 38 38 36 34 33 33 33 33
44 43 41 39 38 40 43 45 46 45 47 48 48 46 46 47 47 48 48 47 45 44 43 41 41 41 39 37 37 37 37 36 37 38 38 38 37 35 33 32 32 32
42 42 43 42 39 39 42 45 46 46 46 48 49 48 46 47 49 50 49 47 47 45 43 43 42 43 42 39 37 37 38 37 37 37 37 37 37 36 34 32 31 31
42 42 42 43 42 41 41 42 42 43 43 44 47 49 49 49 50 51 49 48 47 47 45 44 44 44 43 42 40 38 38 38 38 37 36 36 36 36 34 32 30 31
43 43 41 41 41 41 41 41 42 42 42 43 46 48 50 50 50 51 50 48 47 47 47 46 45 44 43 42 41 40 39 37 37 37 36 36 36 35 34 32 31 31
40 42 42 40 39 39 40 42 44 45 44 44 44 46 48 49 50 51 52 51 48 47 47 47 46 45 44 42 41 40 40 38 38 37 36 36 36 35 34 33 33 32
36 39 41 41 40 39 39 40 43 46 46 45 44 45 47 48 49 50 51 53 52 49 48 48 47 46 45 44 42 40 40 39 38 37 36 36 36 35 35 35 34 33
35 37 39 40 40 39 38 39 40 42 45 47 46 46 47 49 49 49 50 51 52 50 49 49 48 47 46 45 44 42 40 39 39 38 37 37 36 36 36 35 35 34
33 35 37 39 39 38 38 39 40 41 43 46 48 48 49 50 51 51 49 49 50 51 50 49 48 48 47 46 46 45 42 41 40 39 39 39 38 38 37 36 35 35
32 34 35 37 40 40 39 38 39 40 42 44 46 47 49 49 50 52 51 49 49 50 50 50 49 49 48 48 47 46 45 43 41 40 40 41 40 39 38 38 37 36
33 33 34 37 39 40 41 40 38 38 41 43 44 45 48 48 48 49 51 51 49 49 49 50 50 50 50 50 49 47 46 45 42 41 41 41 42 41 40 39 38 38
33 33 35 37 38 39 41 42 40 38 39 42 43 45 47 48 47 47 49 51 51 50 50 50 49 50 51 51 50 48 46 44 42 42 42 42 42 42 41 41 40 40
33 35 36 36 36 36 37 39 40 39 39 41 43 44 46 47 47 47 48 50 51 50 50 50 48 49 49 49 49 48 46 44 43 42 42 42 42 42 42 41 41 41
35 36 36 35 34 33 34 36 38 38 39 40 41 43 46 46 46 46 46 47 48 48 48 48 47 47 48 48 48 48 47 45 43 43 43 42 41 42 41 41 40 41
33 33 34 34 34 33 34 36 37 37 37 38 39 41 42 44 45 45 44 43 43 44 44 45 46 48 49 50 50 49 47 46 44 44 43 42 41 40 40 39 39 41
31 31 31 32 35 36 36 35 35 36 36 37 39 39 39 40 42 43 43 42 41 41 42 44 46 48 50 52 51 49 47 45 44 44 43 42 41 39 38 38 39 40
30 30 30 32 35 37 37 36 35 36 37 37 37 38 38 39 40 41 41 42 42 42 43 44 46 47 49 50 50 48 47 46 44 44 43 42 41 40 39 39 38 39
30 31 31 32 34 36 37 37 36 35 36 37 38 38 38 38 39 41 41 41 42 43 44 44 44 46 48 49 49 48 47 47 45 44 42 42 41 41 41 40 39 39
31 32 32 33 34 35 36 35 35 36 37 38 38 38 38 39 39 41 41 42 42 42 43 44 44 45 47 48 48 48 47 47 46 44 43 42 42 42 41 41 40 40
33 33 33 34 34 35 35 35 36 38 38 38 38 38 39 40 40 40 41 42 43 43 42 42 43 45 46 47 47 47 47 47 46 45 43 42 42 42 42 42 42 43
33 33 33 33 34 34 36 36 36 37 37 37 39 40 41 40 40 41 41 41 42 42 41 40 42 44 45 46 47 46 46 45 45 44 43 42 42 42 42 43 44 45
30 31 31 32 33 34 34 35 35 36 37 38 38 39 39 39 39 40 40 39 39 40 40 39 40 42 44 45 46 46 46 44 43 43 42 41 42 42 43 44 44 45
27 29 30 31 33 34 34 34 35 35 36 37 36 36 37 38 39 39 39 40 41 41 41 39 39 41 44 45 45 46 45 43 41 40 40 40 41 42 43 43 44 45
28 30 30 31 33 35 36 36 36 36 36 37 37 37 37 38 39 38 39 41 42 43 42 40 40 42 45 45 45 46 46 44 42 40 39 39 39 40 41 43 43 44
29 30 32 33 34 36 37 38 38 38 38 38 38 37 36 37 38 38 38 39 41 43 43 41 40 42 45 45 45 46 47 45 43 41 38 37 38 38 39 40 42 42
28 30 33 35 35 36 37 39 39 38 38 38 37 35 34 35 36 36 36 36 39 41 43 42 41 42 45 47 47 49 49 47 44 41 39 38 38 38 38 38 39 41
Wind_Direction
201 198 196 196 196 195 193 192 192 191 191 192 193 194 194 194 195 196 198 201 201 202 202 202 203 204 204 204 204 204 204 204 205 206 207 207 209 209 208 207 205 201
200 200 198 196 196 195 195 195 195 194 193 193 194 195 195 194 194 196 198 199 200 202 203 203 204 204 204 203 202 202 203 204 205 207 207 208 209 210 211 210 209 206
199 199 199 199 197 195 194 195 195 196 194 194 194 194 195 194 195 197 198 198 199 201 203 204 205 205 206 205 202 201 201 202 205 207 207 208 209 210 211 212 212 209
201 200 199 200 200 198 195 194 194 195 194 193 193 193 194 194 194 196 197 198 198 199 201 203 203 202 203 205 204 203 200 201 204 206 206 206 208 209 210 212 212 211
204 203 201 200 200 199 197 195 195 194 193 193 192 192 193 193 193 194 196 197 197 197 199 200 201 200 200 201 202 202 201 199 201 204 205 206 207 208 208 208 209 208
208 204 203 202 201 199 197 197 196 196 195 194 192 191 191 191 192 192 194 196 197 197 197 198 199 200 200 200 199 200 201 200 199 201 204 206 206 205 206 206 206 206
213 207 204 203 202 200 199 198 197 197 196 195 194 192 191 191 192 192 193 195 196 197 196 197 198 199 200 201 201 200 201 201 200 200 203 206 205 203 203 204 204 203
217 212 207 203 202 202 201 200 199 197 196 195 194 194 193 192 193 194 194 194 195 196 196 196 197 198 199 199 200 199 200 201 200 199 201 202 203 203 202 202 201 201
218 216 212 207 203 201 201 201 200 198 196 194 193 193 194 195 195 195 195 195 195 196 196 196 197 197 197 198 199 198 198 199 199 199 200 201 203 203 201 200 199 200
218 217 215 211 206 203 202 200 198 197 196 194 193 192 193 195 196 195 195 196 195 195 195 196 196 196 197 198 199 198 198 199 199 200 202 203 204 204 202 200 199 199
215 216 216 214 210 207 205 203 200 197 195 194 192 191 192 193 194 194 193 194 195 195 195 195 195 195 196 197 199 198 198 199 200 201 203 204 205 205 203 201 200 201
213 212 214 215 212 210 208 206 204 201 197 195 193 192 191 192 193 193 193 194 196 196 196 196 195 195 195 196 197 196 197 199 200 202 203 204 205 205 204 203 202 202
213 211 212 213 213 212 209 206 205 205 202 198 196 194 192 192 193 194 194 195 196 197 197 196 195 195 195 196 195 195 195 197 199 200 202 204 204 205 205 205 204 202
214 213 212 211 211 212 211 208 206 205 204 200 198 196 195 195 195 195 196 196 197 197 197 196 195 194 195 195 194 194 195 197 198 199 200 201 203 204 205 206 205 203
216 213 210 208 207 208 211 210 207 206 204 200 199 198 197 197 196 196 196 196 196 197 196 195 194 195 196 195 194 194 195 196 197 198 199 199 199 201 203 205 205 204
217 212 207 204 203 204 208 209 207 205 203 200 200 199 198 196 196 196 196 196 196 196 195 195 196 197 197 197 196 195 195 195 195 196 198 198 197 197 200 203 204 204
213 209 204 201 201 202 204 206 206 204 201 199 198 197 197 196 195 195 196 197 197 196 196 197 198 199 199 198 198 197 196 194 193 195 196 197 198 198 199 200 200 202
208 204 201 200 200 200 201 203 203 201 198 197 196 196 195 195 195 196 197 197 197 197 197 198 199 200 200 199 198 197 196 194 193 194 195 196 198 200 200 199 198 199
206 201 199 199 199 199 199 198 197 197 196 196 195 194 193 194 195 196 196 196 196 195 196 198 200 201 200 199 197 196 194 193 193 194 195 196 198 199 199 199 198 198
205 201 199 198 197 197 196 195 194 194 194 193 192 191 192 193 194 194 194 195 195 196 197 198 200 200 199 197 196 194 193 193 194 196 197 198 199 199 199 200 200 199
206 202 199 196 194 193 194 195 195 192 191 190 190 190 192 192 192 193 195 195 195 195 196 198 199 199 197 196 194 193 193 193 194 195 195 197 199 200 201 203 202 201
208 203 198 194 191 190 193 196 195 192 190 190 190 190 191 191 192 193 194 193 194 195 195 197 199 198 196 196 195 193 192 192 192 192 193 195 197 199 201 203 203 202
212 205 201 194 189 188 191 194 195 193 192 190 189 188 189 191 191 192 193 193 194 194 195 195 196 196 196 196 195 193 191 189 189 190 191 193 196 198 200 202 203 204
215 207 203 196 191 189 190 191 193 194 192 191 191 190 190 190 189 189 192 194 195 195 195 195 195 195 196 195 194 193 190 188 188 188 190 192 195 197 200 201 204 206
219 208 203 199 195 193 191 190 191 192 192 193 194 193 191 190 188 189 191 194 195 196 196 196 195 194 194 194 194 193 192 190 189 188 188 190 192 194 197 201 204 205
225 211 204 200 197 196 193 191 190 189 189 190 193 194 191 188 188 189 190 192 194 196 196 197 196 194 194 195 194 194 194 192 189 188 187 188 190 192 193 197 201 203